TimeCDT,TemperatureF,Dew PointF,Humidity,Sea Level PressureIn,VisibilityMPH,Wind Direction,Wind SpeedMPH,Gust SpeedMPH,PrecipitationIn,Events,Conditions,WindDirDegrees,DateUTC
12:52 AM,39.0,37.0,93,29.86,7.0,ENE,20.7,29.9,0.10,Rain,Rain,60,2013-04-11 05:52:00
1:52 AM,37.9,36.0,93,29.72,10.0,ENE,28.8,40.3,0.01,,Overcast,70,2013-04-11 06:52:00
2:52 AM,37.9,37.0,97,29.75,10.0,ENE,20.7,32.2,0.00,,Overcast,70,2013-04-11 07:52:00
3:52 AM,37.9,37.0,97,29.75,9.0,ENE,15.0,24.2,N/A,,Overcast,70,2013-04-11 08:52:00
4:52 AM,37.9,37.0,97,29.70,9.0,ENE,15.0,23.0,0.00,,Overcast,60,2013-04-11 09:52:00
5:52 AM,39.0,37.9,96,29.69,10.0,ENE,15.0,24.2,N/A,,Overcast,60,2013-04-11 10:52:00
6:39 AM,39.2,37.4,93,29.68,2.5,ENE,13.8,-,0.02,Rain,Light Rain,60,2013-04-11 11:39:00
6:52 AM,39.0,37.9,96,29.69,2.5,ENE,10.4,-,0.02,Rain,Light Rain,60,2013-04-11 11:52:00
7:16 AM,39.2,39.2,100,29.67,4.0,NE,13.8,-,0.00,Rain,Light Rain,50,2013-04-11 12:16:00
7:25 AM,39.2,39.2,100,29.66,1.8,ENE,10.4,-,0.01,Rain,Light Rain,60,2013-04-11 12:25:00
7:52 AM,39.9,39.0,97,29.67,1.8,ENE,12.7,-,0.01,Rain,Light Rain,70,2013-04-11 12:52:00
8:02 AM,39.2,39.2,100,29.66,2.0,ENE,11.5,18.4,0.00,Rain,Light Rain,70,2013-04-11 13:02:00
8:13 AM,41.0,39.2,93,29.66,3.0,ENE,13.8,-,0.00,Rain,Light Rain,70,2013-04-11 13:13:00
8:20 AM,41.0,39.2,93,29.65,2.5,ENE,12.7,-,0.00,Rain,Light Rain,60,2013-04-11 13:20:00
8:40 AM,41.0,39.2,93,29.64,1.5,ENE,11.5,-,0.01,Rain,Light Rain,60,2013-04-11 13:40:00
8:52 AM,41.0,39.9,96,29.66,1.5,ENE,11.5,-,0.02,Rain,Light Rain,60,2013-04-11 13:52:00
9:20 AM,41.0,39.2,93,29.65,2.0,ENE,15.0,-,0.00,Rain,Light Rain,60,2013-04-11 14:20:00
9:45 AM,42.8,41.0,93,29.63,1.2,ENE,15.0,-,0.01,Rain,Light Rain,60,2013-04-11 14:45:00
10:04 AM,42.8,41.0,93,29.63,2.5,ENE,13.8,-,0.00,Rain,Light Rain,60,2013-04-11 15:04:00
10:12 AM,42.8,41.0,93,29.63,3.0,ENE,13.8,-,0.00,,Overcast,60,2013-04-11 15:12:00
10:21 AM,42.8,41.0,93,29.62,1.8,ENE,12.7,-,0.00,Rain,Light Rain,70,2013-04-11 15:21:00
10:38 AM,42.8,41.0,93,29.62,2.5,ENE,12.7,-,0.00,,Overcast,60,2013-04-11 15:38:00
10:45 AM,42.8,41.0,93,29.62,3.0,ENE,12.7,-,0.00,,Overcast,60,2013-04-11 15:45:00
10:52 AM,42.1,42.1,100,29.62,2.5,ENE,11.5,-,0.00,,Overcast,70,2013-04-11 15:52:00
11:13 AM,42.8,42.8,100,29.63,1.5,ENE,10.4,-,N/A,,Overcast,60,2013-04-11 16:13:00
11:52 AM,44.1,43.0,96,29.64,1.0,ENE,8.1,-,0.00,,Overcast,60,2013-04-11 16:52:00
12:52 PM,45.0,44.1,97,29.61,1.2,ENE,9.2,-,N/A,,Overcast,60,2013-04-11 17:52:00
1:28 PM,46.4,44.6,93,29.57,2.0,East,9.2,-,N/A,,Overcast,80,2013-04-11 18:28:00
1:52 PM,46.0,45.0,96,29.60,1.8,East,4.6,-,N/A,,Overcast,80,2013-04-11 18:52:00
2:16 PM,46.4,44.6,93,29.59,1.0,NE,3.5,-,0.01,Rain,Light Rain,50,2013-04-11 19:16:00
2:24 PM,46.4,46.4,100,29.60,0.8,Calm,Calm,-,0.01,Rain,Light Rain,0,2013-04-11 19:24:00
2:32 PM,46.4,44.6,93,29.59,1.0,NE,3.5,-,0.01,,Overcast,40,2013-04-11 19:32:00
2:52 PM,46.9,46.0,97,29.60,1.0,ENE,4.6,-,0.01,,Overcast,60,2013-04-11 19:52:00
3:52 PM,46.9,46.0,97,29.59,1.2,NNW,3.5,-,N/A,,Overcast,340,2013-04-11 20:52:00
4:43 PM,46.4,46.4,100,29.57,2.0,Calm,Calm,-,N/A,,Overcast,0,2013-04-11 21:43:00
4:52 PM,46.9,46.0,97,29.58,4.0,Calm,Calm,-,N/A,,Overcast,0,2013-04-11 21:52:00
5:17 PM,46.4,46.4,100,29.58,7.0,Calm,Calm,-,N/A,,Overcast,0,2013-04-11 22:17:00
5:52 PM,48.0,46.0,93,29.60,7.0,Calm,Calm,-,N/A,,Overcast,0,2013-04-11 22:52:00
6:08 PM,48.2,46.4,93,29.58,10.0,West,6.9,-,N/A,,Overcast,270,2013-04-11 23:08:00
6:28 PM,48.2,46.4,93,29.57,4.0,WSW,5.8,-,N/A,,Overcast,250,2013-04-11 23:28:00
6:52 PM,48.0,46.0,93,29.58,10.0,SW,3.5,-,N/A,,Overcast,230,2013-04-11 23:52:00
7:00 PM,48.2,46.4,93,29.56,10.0,SSW,3.5,-,N/A,,Overcast,210,2013-04-12 00:00:00
7:52 PM,46.9,46.0,97,29.57,10.0,SW,4.6,-,N/A,,Overcast,220,2013-04-12 00:52:00
8:10 PM,46.4,46.4,100,29.56,4.0,SW,5.8,-,0.01,Rain,Light Rain,230,2013-04-12 01:10:00
8:20 PM,46.4,46.4,100,29.56,6.0,WSW,6.9,-,0.01,Rain,Light Rain,240,2013-04-12 01:20:00
8:33 PM,46.4,44.6,93,29.56,10.0,WSW,8.1,-,0.01,,Overcast,240,2013-04-12 01:33:00
8:52 PM,46.0,45.0,96,29.57,3.0,WSW,11.5,-,0.01,Rain,Light Rain,250,2013-04-12 01:52:00
8:59 PM,46.4,44.6,93,29.56,3.0,WSW,8.1,-,0.00,Rain,Light Rain,250,2013-04-12 01:59:00
9:03 PM,46.4,44.6,93,29.56,2.5,WSW,11.5,-,0.00,Rain,Light Rain,240,2013-04-12 02:03:00
9:31 PM,44.6,42.8,93,29.57,2.0,West,12.7,-,0.00,Rain,Light Rain,260,2013-04-12 02:31:00
9:49 PM,42.8,42.8,100,29.58,2.0,WSW,13.8,-,0.00,Rain,Light Rain,250,2013-04-12 02:49:00
9:52 PM,43.0,42.1,97,29.59,2.0,WSW,10.4,-,0.00,Rain,Light Rain,250,2013-04-12 02:52:00
10:30 PM,41.0,39.2,93,29.59,10.0,West,13.8,-,0.00,,Overcast,260,2013-04-12 03:30:00
10:45 PM,41.0,37.4,87,29.59,10.0,West,13.8,-,0.00,,Overcast,260,2013-04-12 03:45:00
10:52 PM,41.0,37.9,89,29.60,10.0,West,12.7,-,0.00,,Overcast,260,2013-04-12 03:52:00
11:25 PM,41.0,39.2,93,29.59,8.0,WSW,12.7,-,0.00,Rain,Light Rain,250,2013-04-12 04:25:00
11:36 PM,39.2,39.2,100,29.59,5.0,WSW,10.4,-,0.00,Rain,Light Rain,250,2013-04-12 04:36:00
11:44 PM,39.2,37.4,93,29.59,6.0,West,15.0,19.6,0.00,Rain,Light Rain,270,2013-04-12 04:44:00
11:52 PM,39.9,37.9,93,29.61,9.0,West,15.0,-,0.00,,Overcast,270,2013-04-12 04:52:00